Scappoose, OR

9:20 PM PDT on August 31, 2016 (GMT -0700)
Scappoose Industrial

Weather History for KSPB - November, 2012

Change the Weather History Date:

Friday, November 23, 2012

  Actual Average Record
Temperature  
Mean Temperature 42 °F -  
Max Temperature 48 °F - 57 °F (2008)
Min Temperature 37 °F - 14 °F (2010)
Degree Days  
Heating Degree Days 22    
Month to date heating degree days 405  
Since 1 July heating degree days 931  
Cooling Degree Days 0    
Month to date cooling degree days 0  
Year to date cooling degree days 245  
Moisture  
Dew Point 43 °F    
Average Humidity 91    
Maximum Humidity 100    
Minimum Humidity 82    
Precipitation  
Precipitation 0.75 in - 0.90 in (2011)
Month to date precipitation 7.54  
Year to date precipitation 44.50  
Sea Level Pressure  
Sea Level Pressure 30.17 in    
Wind  
Wind Speed 2 mph (SE)    
Max Wind Speed 12 mph    
Max Gust Speed 14 mph    
Visibility 7 miles    
Events Rain    
T = Trace of Precipitation, MM = Missing Value Source: NWS Daily Summary

Daily Weather History Graph

Daily Weather History Graph

Search for Another Location

Airport or City:

Trip Planner

Search our weather history database for the weather conditions in past years. The results will help you decide how hot, cold, wet, or windy it might be!

Date:

Astronomy

Nov. 23, 2012 Rise Set
Actual Time 7:22 AM PST 4:32 PM PST
Civil Twilight 6:49 AM PST 5:05 PM PST
Nautical Twilight 6:13 AM PST 5:42 PM PST
Astronomical Twilight 5:37 AM PST 6:18 PM PST
Moon 2:00 PM PST (11/23) 2:35 AM PST (11/23)
Length of Visible Light 10h 16m
Length of Day
9h 09m
Waxing Gibbous, 80% of the Moon is Illuminated
Nov 23
Waxing Gibbous
Nov 28
Full
Dec 6
Last Quarter
Dec 13
New
Dec 19
First Quarter

Hourly Weather History & Observations

Time (PST) Temp. Windchill Dew Point Humidity Pressure Visibility Wind Dir Wind Speed Gust Speed Precip Events Conditions
12:53 AM 37.9 °F - 36.0 °F 93% 30.26 in 10.0 mi Calm Calm - N/A   Clear
1:53 AM 39.0 °F - 37.0 °F 93% 30.26 in 9.0 mi Calm Calm - 0.00 in   Mostly Cloudy
2:53 AM 39.0 °F 36.8 °F 37.0 °F 93% 30.26 in 10.0 mi West 3.5 mph - N/A   Clear
3:53 AM 39.9 °F - 37.0 °F 89% 30.25 in 10.0 mi Calm Calm - N/A   Mostly Cloudy
4:53 AM 43.0 °F - 37.9 °F 82% 30.25 in 10.0 mi Calm Calm - N/A   Overcast
5:36 AM 42.8 °F 40.1 °F 39.2 °F 87% 30.24 in 10.0 mi South 4.6 mph - N/A   Overcast
5:53 AM 43.0 °F 41.3 °F 39.0 °F 86% 30.24 in 10.0 mi SSW 3.5 mph - N/A   Overcast
6:53 AM 44.1 °F 42.5 °F 39.9 °F 85% 30.22 in 10.0 mi ESE 3.5 mph - 0.00 in   Overcast
7:53 AM 44.1 °F 42.5 °F 39.9 °F 85% 30.23 in 10.0 mi ESE 3.5 mph - 0.00 in Rain Light Rain
8:53 AM 44.1 °F 42.5 °F 39.9 °F 85% 30.24 in 10.0 mi ESE 3.5 mph - 0.03 in Rain Light Rain
9:13 AM 44.6 °F - 42.8 °F 93% 30.24 in 10.0 mi Calm Calm - 0.00 in Rain Light Rain
9:32 AM 44.6 °F 43.1 °F 41.0 °F 87% 30.23 in 10.0 mi ESE 3.5 mph - 0.00 in Rain Light Rain
9:53 AM 44.1 °F - 41.0 °F 89% 30.24 in 10.0 mi Calm Calm - 0.02 in Rain Light Rain
10:53 AM 44.1 °F 41.5 °F 42.1 °F 93% 30.23 in 4.0 mi SSE 4.6 mph - 0.06 in Rain Light Rain
11:53 AM 44.1 °F 41.5 °F 42.1 °F 93% 30.21 in 5.0 mi SSE 4.6 mph - 0.09 in Rain Rain
12:12 PM 44.6 °F 40.7 °F 42.8 °F 93% 30.19 in 7.0 mi SE 6.9 mph - 0.02 in Rain Light Rain
12:23 PM 44.6 °F 42.2 °F 42.8 °F 93% 30.18 in 9.0 mi SE 4.6 mph - 0.02 in Rain Light Rain
12:51 PM 44.6 °F 42.2 °F 42.8 °F 93% 30.18 in 10.0 mi South 4.6 mph - 0.04 in Rain Light Rain
12:53 PM 45.0 °F 43.5 °F 43.0 °F 93% 30.18 in 10.0 mi Variable 3.5 mph - 0.04 in Rain Light Rain
1:00 PM 44.6 °F 43.1 °F 42.8 °F 93% 30.18 in 10.0 mi South 3.5 mph - 0.00 in Rain Light Rain
1:19 PM 46.4 °F 43.5 °F 42.8 °F 87% 30.17 in 10.0 mi SSE 5.8 mph - 0.00 in Rain Light Rain
1:53 PM 46.0 °F 42.5 °F 44.1 °F 93% 30.15 in 7.0 mi SSE 6.9 mph - 0.03 in Rain Light Rain
2:53 PM 46.0 °F 41.9 °F 44.1 °F 93% 30.12 in 8.0 mi SSE 8.1 mph - 0.06 in Rain Light Rain
3:28 PM 46.4 °F 44.3 °F 44.6 °F 93% 30.13 in 10.0 mi SSE 4.6 mph - 0.01 in Rain Light Rain
3:53 PM 46.0 °F 43.9 °F 44.1 °F 93% 30.12 in 6.0 mi SSE 4.6 mph - 0.02 in Rain Light Rain
4:15 PM 46.4 °F - 44.6 °F 93% 30.12 in 8.0 mi Calm Calm - 0.01 in Rain Light Rain
4:36 PM 46.4 °F - 44.6 °F 93% 30.13 in 5.0 mi Calm Calm - 0.05 in Rain Rain
4:53 PM 46.0 °F - 44.1 °F 93% 30.13 in 5.0 mi Calm Calm - 0.09 in Rain Rain
5:16 PM 46.4 °F - 44.6 °F 93% 30.13 in 5.0 mi Calm Calm - 0.04 in Rain Light Rain
5:27 PM 46.4 °F - 44.6 °F 93% 30.11 in 5.0 mi Calm Calm - 0.05 in Rain Rain
5:53 PM 46.0 °F - 45.0 °F 96% 30.12 in 5.0 mi Calm Calm - 0.08 in Rain Light Rain
6:41 PM 46.4 °F - 44.6 °F 93% 30.12 in 6.0 mi Calm Calm - 0.03 in Rain Light Rain
6:53 PM 46.0 °F - 45.0 °F 96% 30.12 in 6.0 mi Calm Calm - 0.03 in Rain Light Rain
7:27 PM 46.4 °F - 44.6 °F 93% 30.13 in 5.0 mi Calm Calm - 0.02 in Rain Light Rain
7:42 PM 46.4 °F 45.2 °F 44.6 °F 93% 30.14 in 6.0 mi North 3.5 mph - 0.03 in Rain Light Rain
7:53 PM 46.9 °F - 46.0 °F 97% 30.14 in 6.0 mi Calm Calm - 0.04 in Rain Light Rain
8:14 PM 46.4 °F - 46.4 °F 100% 30.13 in 5.0 mi Calm Calm - 0.02 in Rain Light Rain
8:24 PM 46.4 °F 44.3 °F 44.6 °F 93% 30.13 in 4.0 mi South 4.6 mph - 0.02 in Rain Light Rain
8:32 PM 46.4 °F 43.5 °F 44.6 °F 93% 30.13 in 2.5 mi Variable 5.8 mph - 0.03 in Rain Light Rain
8:37 PM 46.4 °F - 46.4 °F 100% 30.13 in 3.0 mi Calm Calm - 0.03 in   Overcast
8:46 PM 46.4 °F 44.3 °F 46.4 °F 100% 30.14 in 6.0 mi North 4.6 mph - 0.03 in   Overcast
8:53 PM 46.9 °F - 46.0 °F 97% 30.14 in 5.0 mi NW 3.5 mph - 0.03 in   Overcast
9:11 PM 46.4 °F 45.2 °F 46.4 °F 100% 30.14 in 5.0 mi ENE 3.5 mph - 0.01 in Rain Light Rain
9:22 PM 46.4 °F 45.2 °F 46.4 °F 100% 30.14 in 5.0 mi ENE 3.5 mph - 0.02 in Rain Light Rain
9:34 PM 46.4 °F - 46.4 °F 100% 30.14 in 3.0 mi Calm Calm - 0.03 in Rain Light Rain
9:53 PM 46.9 °F - 46.0 °F 97% 30.14 in 3.0 mi Calm Calm - 0.06 in Rain Light Rain
10:29 PM 46.4 °F 44.3 °F 46.4 °F 100% 30.14 in 3.0 mi SSE 4.6 mph - 0.05 in Rain Rain
10:53 PM 48.0 °F - 46.9 °F 96% 30.15 in 6.0 mi Calm Calm - 0.07 in Rain Light Rain
11:19 PM 48.2 °F - 46.4 °F 93% 30.15 in 10.0 mi Calm Calm - 0.00 in   Overcast
11:29 PM 48.2 °F - 46.4 °F 93% 30.16 in 10.0 mi Calm Calm - 0.00 in   Overcast
11:53 PM 48.0 °F - 46.9 °F 96% 30.17 in 8.0 mi Calm Calm - 0.00 in   Overcast